Location: Courth�zon
(44.0873°N, 4.8838°E)
Time: 02:02:29
(UTC+00:00)

Daily predictions for brighter satellites

Satellite Brightness Start Highest point End
(mag) Time Altitude Azimuth Time Altitude Azimuth Time Altitude Azimuth
ATLAS 2AS CENTAUR R/B 4.4 02:52:21 30° NE 02:52:21 30° NE 02:55:53 10° NE
Lacrosse 5 4.5 03:33:29 13° NE 03:33:29 13° NE 03:34:07 10° NE
ATLAS 3B R/B 3.5 03:36:30 43° SSE 03:36:30 43° SSE 03:41:08 10° SSE
CZ-4C R/B 4.0 03:47:08 23° NNE 03:47:08 23° NNE 03:49:35 10° NNE
Cosmos 1844 Rocket 4.0 04:02:42 29° NNE 04:02:42 29° NNE 04:05:26 10° NNE
Atlas Centaur 2 4.2 04:00:45 23° S 04:00:45 23° S 04:05:14 10° SSE
USA 305 4.3 04:16:56 36° ENE 04:16:56 36° ENE 04:20:03 10° E
ATLAS 5 CENTAUR R/B 2.6 04:17:17 40° E 04:17:17 40° E 04:20:39 10° NE
Nadezhda 3 Rocket 4.5 04:16:48 10° N 04:23:00 59° ENE 04:29:05 10° SSE
USA 306 3.9 04:25:27 43° NE 04:25:27 43° NE 04:29:00 10° ESE
BREEZE-M DEB (TANK) 3.9 04:34:15 36° ENE 04:34:15 36° ENE 04:36:42 10° ENE
ADEOS 3.4 04:29:15 10° NNE 04:34:30 88° WNW 04:39:44 10° SSW
FENGYUN 3A 3.5 04:29:35 10° N 04:35:00 74° WNW 04:40:21 10° SSW
Meteor 1-27 Rocket 4.4 04:30:00 10° N 04:35:45 56° ENE 04:41:32 10° SSE
Cosmos 1844 4.3 04:37:52 39° NNW 04:37:52 39° NNW 04:41:49 10° NNE
ATLAS 2AS CENTAUR R/B 3.8 04:39:47 31° NW 04:39:59 31° NNW 04:46:42 10° NNE
Meteor 1-10 Rocket 4.1 04:41:22 31° NNW 04:44:11 80° W 04:49:52 10° S
Milstar 3 Cent rocket 4.5 04:42:06 15° SW 04:45:19 20° S 04:52:12 10° SE
Cosmos 1610 Rocket 4.5 04:39:23 10° S 04:45:47 89° W 04:52:12 10° N
SKYMED 2 3.7 04:42:36 10° SSE 04:46:55 73° ENE 04:48:45 34° N
METEOR-M 4.0 04:44:31 10° N 04:49:51 70° WNW 04:55:09 10° SSW
Cosmos 372 Rocket 3.8 04:49:28 53° WSW 04:50:25 64° WNW 04:55:31 10° NNE
COSMOS 2455 2.8 04:49:17 46° WSW 04:50:46 58° NW 04:56:45 10° NNE
CZ-2C R/B 3.1 04:50:55 17° S 04:50:58 17° S 04:53:11 10° SE
Cosmos 2150 Rocket 4.2 04:45:43 10° S 04:50:59 72° ESE 04:56:12 10° NNE
Cosmos 1707 Rocket 4.5 04:47:28 11° N 04:51:32 47° ENE 04:55:42 10° SSE
SJ-12 3.9 04:47:28 10° NNE 04:51:33 82° ESE 04:55:37 10° S
Cosmos 2154 Rocket 3.9 04:47:51 10° S 04:54:05 79° W 05:00:26 10° N
Cosmos 2298 Rocket 4.0 04:49:13 10° SSW 04:54:30 83° ESE 04:59:49 10° NNE
PSLV R/B 4.2 04:53:05 10° SSE 04:57:09 65° ENE 04:59:50 20° N
Sich 1 3.1 04:55:12 10° S 04:59:37 80° E 05:04:04 10° N
ALOS 4.1 04:55:45 10° N 04:56:56 17° N 04:56:56 17° N
Cosmos 1295 Rocket 4.3 04:54:42 10° S 05:00:47 85° W 05:06:56 10° N
ERS-2 3.6 04:57:24 10° S 04:59:08 25° SSW 04:59:08 25° SSW
Cosmos 1833 Rocket 3.0 04:57:52 18° NNW 05:02:04 67° ENE 05:07:39 10° SE
Cosmos 2327 Rocket 4.3 04:56:59 10° SSW 05:03:00 65° W 05:09:05 10° N
Cosmos 2074 Rocket 4.3 04:59:52 10° SW 05:05:41 42° WNW 05:11:33 10° N
Cosmos 2082 Rocket 3.3 05:01:52 10° NNW 05:07:18 43° ENE 05:12:43 10° SE
SL-4 R/B 1.8 05:06:43 56° NW 05:07:25 74° NNE 05:11:05 10° ESE
EXPRESS MD2 3.5 05:07:42 50° WNW 05:08:44 83° SSW 05:15:30 10° ESE
USA 290 4.3 05:07:38 14° N 05:09:49 26° ENE 05:12:35 10° ESE
Cosmos 2228 Rocket 3.6 05:11:08 38° WSW 05:11:08 38° WSW 05:14:45 10° SSW
Cosmos 1437 Rocket 3.0 05:12:48 44° WSW 05:12:48 44° WSW 05:16:04 10° S
Lacrosse 5 3.5 05:12:41 18° NNW 05:13:41 19° N 05:17:17 10° NE
EO 1 Delta rocket 3.7 05:12:04 10° S 05:16:47 79° W 05:21:29 10° NNW
Cosmos 2341 Rocket 4.0 05:14:34 10° S 05:20:46 90° SSE 05:27:04 10° N
Meteor 2-12 Rocket 4.4 05:17:22 10° SSW 05:23:31 78° W 05:29:43 10° N
ATLAS 3B R/B 4.1 05:23:49 18° WSW 05:23:49 18° WSW 05:28:08 10° SW
USA 307 2.8 05:22:34 34° WNW 05:24:24 77° SW 05:28:41 10° SE
Meteor PRIRODA 3.7 05:23:24 10° N 05:27:04 54° WNW 05:30:42 10° SSW
NOSS 2-1 (C) 4.5 05:25:42 10° S 05:28:51 36° ESE 05:32:00 10° NE
CZ-4B R/B 3.1 05:24:55 10° N 05:29:12 51° WNW 05:33:19 10° SSW
USA 308 2.9 05:28:59 29° WNW 05:31:03 69° SW 05:35:19 10° SE
SJ-7 4.5 05:29:31 10° NNE 05:33:38 84° ESE 05:37:48 10° SSW
CZ-4C R/B 3.8 05:32:20 16° NW 05:33:47 18° NNW 05:37:58 10° NNE
Cosmos 2278 Rocket 2.1 05:28:17 10° SSW 05:33:54 70° WNW 05:39:35 10° NNE
SAR-Lupe-4 4.4 05:31:00 10° SSW 05:34:11 30° W 05:34:40 29° W
NOSS 2-1 (D) 4.2 05:31:08 10° SSW 05:34:22 43° ESE 05:37:35 10° NE
COSMO-SKYMED 1 3.2 05:31:07 10° SSW 05:35:04 34° W 05:37:21 20° NW
Okean O Rocket 3.4 05:34:42 10° NNE 05:38:49 35° E 05:42:55 10° SSE
Cosmos 1862 Rocket 3.7 05:34:29 10° N 05:38:56 78° E 05:43:18 10° SSE
Cosmos 1805 Rocket 4.3 05:35:51 10° SW 05:39:45 29° WNW 05:43:42 10° NNW
Envisat 3.2 05:34:40 10° NNE 05:39:47 78° ESE 05:44:52 10° S
NOAA 6 4.3 05:38:06 10° NNE 05:43:14 74° ESE 05:48:21 10° S
Cosmos 1844 Rocket 4.2 05:44:24 15° NW 05:44:38 15° NW 05:47:53 10° N
Cosmos 494 Rocket 4.0 05:39:47 10° NNW 05:44:51 63° WSW 05:49:53 10° S
YAOGAN 6 2.4 05:41:31 10° NNE 05:45:00 89° ESE 05:48:29 10° SSW
Cosmos 1515 4.5 05:42:13 10° N 05:45:58 53° E 05:49:40 10° SSE
Cosmos 1666 Rocket 3.7 05:43:41 10° SSW 05:47:52 48° WNW 05:52:07 10° N
SMAP 3.9 05:43:43 10° NNE 05:48:17 53° E 05:52:49 10° S
COSMOS 2406 3.6 05:44:31 13° NW 05:49:18 44° WSW 05:54:43 10° S
FALCON 9 DEB 4.2 05:49:54 20° W 05:51:38 32° SW 05:54:44 10° SSE
Cosmos 1689 Rocket 3.5 05:49:40 10° SW 05:51:47 19° W 05:51:47 19° W
BREEZE-M (TANK) 2.9 05:44:27 10° WSW 05:52:19 74° SSE 05:54:58 10° ENE
USA 305 3.5 05:53:05 17° WNW 05:56:00 42° SW 06:00:03 10° SSE
Cosmos 1242 Rocket 2.7 05:56:23 10° NNW 05:59:59 54° W 06:03:34 10° S
H-2A R/B 2.2 05:56:56 10° N 06:00:46 78° WNW 06:04:36 10° SSW
Cosmos 1271 Rocket 4.2 05:57:32 10° N 06:01:11 39° ENE 06:04:51 10° SE
ATLAS 5 CENTAUR R/B 2.7 05:58:53 15° W 06:01:20 24° NW 06:05:04 10° NNE
MOS 1 Rocket 3.8 05:58:46 10° S 06:03:33 45° W 06:08:37 10° NNW
USA 306 3.7 06:01:36 14° WNW 06:04:48 36° SW 06:08:45 10° SSE
CZ-2C R/B 2.9 05:59:45 10° SSE 06:05:08 74° ENE 06:10:26 10° N
BREEZE-M R/B 4.4 05:54:17 10° SW 06:05:17 80° SSE 06:10:09 10° ENE
Cosmos 2366 rocket 4.0 06:00:36 10° SSW 06:06:52 67° W 06:13:06 10° N
Cosmos 1633 Rocket 3.6 06:03:48 10° SW 06:07:53 37° WNW 06:11:59 10° N
USA 229 DEB 4.3 06:02:22 10° NNW 06:09:39 67° NE 06:17:19 10° SE
USA 229 4.3 06:02:29 10° NNW 06:09:45 66° NE 06:17:24 10° SE
USA 81 4.5 06:04:52 10° SSW 06:09:46 40° WNW 06:14:43 10° N
NOAA 12 4.2 06:06:05 10° NNE 06:11:22 82° ESE 06:16:36 10° SSW
Okean 1-7 3.8 06:07:18 10° N 06:11:31 54° ENE 06:15:40 10° SSE
Cosmos 2218 Rocket 4.1 06:06:30 10° SSW 06:12:37 58° WNW 06:18:43 10° N
Cosmos 1125 Rocket 4.1 06:08:57 10° SW 06:13:36 33° WNW 06:18:17 10° N
H-2A R/B 3.8 06:11:34 10° NNW 06:14:46 25° WNW 06:17:56 10° SW
Meteor 1-20 Rocket 4.5 06:09:28 10° SSW 06:15:01 50° WNW 06:20:41 10° N
GENESIS II 4.4 06:12:20 10° SW 06:16:17 55° NW 06:20:16 10° NNE
CORIOLIS 4.4 06:10:50 10° NNE 06:16:19 77° ESE 06:21:43 10° S
NOSS 3-1 (C) 4.2 06:11:04 10° NW 06:18:41 89° NE 06:27:27 10° SE
Cosmos 1269 Rocket 4.1 06:15:43 10° NNW 06:20:56 61° WSW 06:26:07 10° S
Iridium 2 3.9 06:19:15 10° N 06:23:01 73° E 06:26:45 10° S
NOSS 3-1 (A) 4.4 06:16:27 10° NW 06:23:57 69° NE 06:32:37 10° SE
FengYun 1-2 T 4.5 06:21:34 10° NNE 06:27:06 77° ESE 06:32:38 10° S
NOSS 2-1 (E) 3.0 06:25:07 10° SW 06:28:23 51° NW 06:31:50 10° NNE
